#timestamp,LO_Frequency,Hit,Temp,Hum 
1479816015.6,286046952.2,N,0.0,0.0
1479816035.5,286046952.2,N,0.0,0.0
1479816055.3,286046954.2,N,0.0,0.0
1479816075.1,286046953.6,N,0.0,0.0
1479816095.9,286046956.0,N,0.0,0.0
1479816115.7,286046955.8,N,0.0,0.0
1479816135.5,286046955.3,N,0.0,0.0
1479816155.4,286046955.1,N,0.0,0.0
1479816175.2,286046957.2,N,0.0,0.0
1479816195.1,286046957.1,N,0.0,0.0
1479816196.0,286046957.1,N,0.0,0.0
1479816215.8,286046959.3,N,0.0,0.0
1479816235.6,286046956.5,N,0.0,0.0
1479816255.5,286046957.0,N,0.0,0.0
1479816275.3,286046957.1,N,0.0,0.0
1479816295.1,286046956.5,N,0.0,0.0
1479816315.9,286046959.6,N,0.0,0.0
1479816335.7,286046959.5,N,0.0,0.0
1479816355.6,286046956.9,N,0.0,0.0
1479816375.4,286046959.1,N,0.0,0.0
1479816395.2,286046957.0,N,0.0,0.0
1479816415.1,286046959.2,N,0.0,0.0
1479816416.0,286046959.2,N,0.0,0.0
1479816435.8,286046959.4,N,0.0,0.0
1479816455.7,286046958.2,N,0.0,0.0
1479816475.5,286046958.9,N,0.0,0.0
1479816495.3,286046958.6,N,0.0,0.0
1479816515.2,286046958.6,N,0.0,0.0
1479816535.9,286046960.7,N,0.0,0.0
1479816555.7,286046961.2,N,0.0,0.0
1479816575.6,286046960.0,N,0.0,0.0
1479816595.4,286046959.8,N,0.0,0.0
1479816615.3,286046962.5,N,0.0,0.0
1479816635.1,286046962.2,N,0.0,0.0
1479816636.0,286046962.2,N,0.0,0.0
1479816655.8,286046964.3,N,0.0,0.0
1479816675.7,286046961.4,N,0.0,0.0
1479816695.5,286046961.7,N,0.0,0.0
1479816715.4,286046962.0,N,0.0,0.0
1479816735.2,286046961.9,N,0.0,0.0
1479816755.0,286046962.2,N,0.0,0.0
1479816755.9,286046962.2,N,0.0,0.0
1479816775.8,286046961.6,N,0.0,0.0
1479816795.6,286046962.2,N,0.0,0.0
1479816815.4,286046962.7,N,0.0,0.0
1479816835.3,286046961.9,N,0.0,0.0
1479816855.1,286046963.9,N,0.0,0.0
1479816875.9,286046964.1,N,0.0,0.0
1479816895.7,286046963.9,N,0.0,0.0
1479816915.5,286046963.5,N,0.0,0.0
1479816935.4,286046966.0,N,0.0,0.0
1479816955.2,286046963.6,N,0.0,0.0
1479816975.0,286046963.6,N,0.0,0.0
1479816976.0,286046963.6,N,0.0,0.0
1479816995.8,286046963.3,N,0.0,0.0
1479817015.6,286046965.2,N,0.0,0.0
1479817035.5,286046963.1,N,0.0,0.0
1479817055.3,286046965.6,N,0.0,0.0
1479817075.1,286046965.8,N,0.0,0.0
1479817095.9,286046967.6,N,0.0,0.0
1479817115.7,286046967.6,N,0.0,0.0
1479817135.6,286046967.4,N,0.0,0.0
1479817155.4,286046967.2,N,0.0,0.0
1479817175.2,286046966.3,N,0.0,0.0
1479817195.1,286046968.7,N,0.0,0.0
1479817196.0,286046968.7,N,0.0,0.0
1479817215.8,286046968.0,N,0.0,0.0
1479817235.7,286046969.2,N,0.0,0.0
1479817255.5,286046967.9,N,0.0,0.0
1479817275.3,286046968.3,N,0.0,0.0
1479817295.2,286046968.1,N,0.0,0.0
1479817315.9,286046970.3,N,0.0,0.0
1479817335.7,286046969.5,N,0.0,0.0
1479817355.6,286046970.1,N,0.0,0.0
1479817375.4,286046969.6,N,0.0,0.0
1479817395.3,286046969.6,N,0.0,0.0
1479817415.1,286046972.2,N,0.0,0.0
1479817416.0,286046972.2,N,0.0,0.0
1479817435.8,286046972.3,N,0.0,0.0
1479817455.7,286046971.6,N,0.0,0.0
1479817475.5,286046971.8,N,0.0,0.0
1479817495.3,286046971.4,N,0.0,0.0
1479817515.2,286046971.2,N,0.0,0.0
1479817535.0,286046973.8,N,0.0,0.0
1479817535.9,286046973.8,N,0.0,0.0
1479817555.8,286046973.2,N,0.0,0.0
1479817575.6,286046975.5,N,0.0,0.0
1479817595.4,286046972.5,N,0.0,0.0
1479817615.3,286046973.4,N,0.0,0.0
1479817635.1,286046972.7,N,0.0,0.0
1479817655.9,286046974.6,N,0.0,0.0
1479817675.7,286046974.6,N,0.0,0.0
1479817695.5,286046975.4,N,0.0,0.0
1479817715.4,286046975.1,N,0.0,0.0
1479817735.2,286046974.8,N,0.0,0.0
1479817755.0,286046975.2,N,0.0,0.0
1479817755.9,286046975.2,N,0.0,0.0
1479817775.8,286046972.5,N,0.0,0.0
1479817795.6,286046973.2,N,0.0,0.0
1479817815.5,286046975.6,N,0.0,0.0
1479817835.3,286046973.1,N,0.0,0.0
1479817855.1,286046972.6,N,0.0,0.0
1479817875.9,286046975.4,N,0.0,0.0
1479817895.7,286046974.4,N,0.0,0.0
1479817915.6,286046975.3,N,0.0,0.0
1479817935.4,286046975.2,N,0.0,0.0
1479817955.2,286046975.5,N,0.0,0.0
1479817975.1,286046974.5,N,0.0,0.0
1479817976.0,286046974.5,N,0.0,0.0
1479817995.8,286046975.3,N,0.0,0.0
1479818015.6,286046977.2,N,0.0,0.0
1479818035.5,286046977.1,N,0.0,0.0
1479818055.3,286046976.8,N,0.0,0.0
1479818075.2,286046974.7,N,0.0,0.0
1479818095.9,286046974.5,N,0.0,0.0
1479818115.7,286046975.7,N,0.0,0.0
1479818135.6,286046975.7,N,0.0,0.0
1479818155.4,286046976.7,N,0.0,0.0
1479818175.2,286046974.1,N,0.0,0.0
1479818195.1,286046976.8,N,0.0,0.0
1479818196.0,286046976.8,N,0.0,0.0
1479818215.8,286046976.2,N,0.0,0.0
1479818235.7,286046977.1,N,0.0,0.0
1479818255.5,286046977.1,N,0.0,0.0
1479818275.3,286046976.4,N,0.0,0.0
1479818295.2,286046978.2,N,0.0,0.0
1479818315.0,286046978.0,N,0.0,0.0
1479818315.9,286046978.0,N,0.0,0.0
1479818335.8,286046975.8,N,0.0,0.0
1479818355.6,286046975.9,N,0.0,0.0
1479818375.4,286046978.1,N,0.0,0.0
1479818395.3,286046976.2,N,0.0,0.0
1479818415.1,286046977.2,N,0.0,0.0
1479818435.9,286046976.8,N,0.0,0.0
1479818455.7,286046978.7,N,0.0,0.0
1479818475.5,286046976.0,N,0.0,0.0
1479818495.4,286046978.3,N,0.0,0.0
1479818515.2,286046978.4,N,0.0,0.0
1479818535.0,286046978.1,N,0.0,0.0
1479818535.9,286046978.1,N,0.0,0.0
1479818555.8,286046978.5,N,0.0,0.0
1479818575.6,286046977.3,N,0.0,0.0
1479818595.5,286046978.0,N,0.0,0.0
1479818615.3,286046977.3,N,0.0,0.0
1479818635.1,286046977.8,N,0.0,0.0
1479818655.9,286046977.8,N,0.0,0.0
1479818675.7,286046980.4,N,0.0,0.0
1479818695.5,286046979.4,N,0.0,0.0
1479818715.4,286046978.9,N,0.0,0.0
1479818735.2,286046979.3,N,0.0,0.0
1479818755.1,286046981.5,N,0.0,0.0
1479818756.0,286046981.5,N,0.0,0.0
1479818775.8,286046981.7,N,0.0,0.0
1479818795.6,286046979.6,N,0.0,0.0
1479818815.5,286046979.4,N,0.0,0.0
1479818835.3,286046979.2,N,0.0,0.0
1479818855.2,286046981.4,N,0.0,0.0
1479818875.9,286046981.8,N,0.0,0.0
1479818895.7,286046983.4,N,0.0,0.0
1479818915.6,286046981.0,N,0.0,0.0
1479818935.4,286046981.1,N,0.0,0.0
1479818955.2,286046982.0,N,0.0,0.0
1479818975.1,286046981.9,N,0.0,0.0
1479818976.0,286046981.9,N,0.0,0.0
1479818995.8,286046981.9,N,0.0,0.0
1479819015.7,286046981.0,N,0.0,0.0
1479819035.5,286046980.9,N,0.0,0.0
1479819055.3,286046983.6,N,0.0,0.0
1479819075.2,286046983.5,N,0.0,0.0
1479819095.0,286046982.2,N,0.0,0.0
1479819095.9,286046982.2,N,0.0,0.0
1479819115.8,286046982.4,N,0.0,0.0
1479819135.6,286046985.2,N,0.0,0.0
1479819155.4,286046984.4,N,0.0,0.0
1479819175.3,286046985.9,N,0.0,0.0
1479819195.1,286046986.4,N,0.0,0.0
1479819215.8,286046983.9,N,0.0,0.0
1479819235.7,286046984.8,N,0.0,0.0
1479819255.5,286046986.6,N,0.0,0.0
1479819275.4,286046986.5,N,0.0,0.0
1479819295.2,286046986.8,N,0.0,0.0
1479819315.0,286046984.3,N,0.0,0.0
1479819315.9,286046984.3,N,0.0,0.0
1479819335.8,286046984.6,N,0.0,0.0
1479819355.6,286046986.6,N,0.0,0.0
1479819375.5,286046985.4,N,0.0,0.0
1479819395.3,286046985.9,N,0.0,0.0
1479819415.1,286046985.3,N,0.0,0.0
1479819435.9,286046986.4,N,0.0,0.0
1479819455.7,286046986.8,N,0.0,0.0
1479819475.5,286046985.2,N,0.0,0.0
1479819495.4,286046984.0,N,0.0,0.0
1479819515.2,286046982.3,N,0.0,0.0
1479819535.1,286046983.1,N,0.0,0.0
1479819536.0,286046983.1,N,0.0,0.0
1479819555.8,286046984.7,N,0.0,0.0
1479819575.6,286046983.7,N,0.0,0.0
1479819595.5,286046982.1,N,0.0,0.0
